[[{"header":{"parameterUnit":"m.s-1","parameterCategory":2,"la1":30.2991,"la2":30.254,"lo1":-89.0895,"lo2":-89.0444,"dy":0.0017,"dx":0.0017,"nx":28,"ny":28,"refTime":"2025-07-21T09:00:00:Z","depth":"0","parameterNumber":2,"parameterNumberName":"U-component_of_CURRENTS"},"data":[0,0,0,0,0,0,0,0,0,0,0,0,0,0,0,0,0,0,0,0,0,0,0,0,0,0,0,0,0,0,0,0,0,0,0,0,0,0,0,0,0,0,0,0,0,0,0,0,0,0,0,0,0,0,0,0,0,0,0.3884,0.3885,0,0.3973,0.3975,0.3976,0.3984,0.3983,0.3982,0.398,0.4066,0.4069,0.4073,0,0,0,0,0,0,0,0,0,0,0,0,0,0.3853,0.3853,0.3884,0.3885,0.3886,0.3973,0.3975,0.3976,0.3984,0.3983,0.3981,0.398,0.4065,0.4069,0.4073,0,0,0,0,0,0,0,0,0,0,0,0,0,0.39,0.3853,0.3884,0.3898,0.39,0.3973,0.3975,0.3977,0.3985,0.3983,0.3981,0.3979,0.4063,0.4068,0.4073,0.4142,0,0,0.4089,0.4091,0,0,0,0,0,0,0,0,0.3897,0.3901,0.3895,0.3897,0.3899,0.3963,0.3995,0.4031,0.3985,0.3956,0.398,0.3978,0.403,0.4038,0.4064,0.4146,0.415,0.409,0.4093,0.4095,0.4096,0,0,0,0,0,0,0,0.3893,0.3898,0.3923,0.3896,0.3899,0.3945,0.3949,0.4003,0.4005,0.3958,0.3958,0.3964,0.4032,0.4059,0.4066,0.4151,0.4089,0.4094,0.4097,0.4099,0.4334,0.4337,0,0,0,0,0,0,0.3871,0.3894,0.392,0.3925,0.389,0.3946,0.3951,0.3947,0.4004,0.401,0.3965,0.3964,0.4051,0.406,0.4069,0.4203,0.4095,0.41,0.4103,0.4331,0.4335,0.4338,0,0,0,0,0,0,0.387,0.3872,0.3916,0.391,0.3918,0.3947,0.3944,0.395,0.3973,0.4009,0.4015,0.3981,0.405,0.4061,0.4122,0.4203,0.4102,0.4107,0.4327,0.4332,0.4336,0.4439,0,0,0,0,0,0,0.3869,0.3871,0.3876,0.3908,0.3917,0.398,0.3946,0.3953,0.3978,0.3977,0.4026,0.4031,0.4049,0.4115,0.4128,0.4209,0.4111,0.4323,0.4329,0.4335,0.4431,0.4446,0.4459,0,0,0,0,0,0.3867,0.3885,0.3875,0.3879,0.3917,0.3982,0.3994,0.401,0.398,0.4018,0.4033,0.403,0.4162,0.4121,0.4136,0.422,0.432,0.4328,0.4334,0.4425,0.4444,0.4459,0,0,0,0,0,0,0.389,0.3888,0.3878,0.3897,0.3941,0.3982,0.4015,0.4015,0.4058,0.4048,0.4063,0.4074,0.4165,0.4173,0.4127,0.4305,0.4245,0.4255,0.4309,0.4327,0.434,0.431,0.4115,0,0,0,0,0,0.3891,0.3895,0.3917,0.3941,0.3955,0.3982,0.4009,0.4021,0.4055,0.4071,0.4097,0.4138,0.4212,0.4246,0.4302,0.4392,0.4385,0.4458,0.4472,0.4484,0.4471,0.4551,0.457,0.4361,0.4361,0.4361,0,0,0.3909,0.3908,0.3913,0.3946,0.3972,0.4026,0.3995,0.4044,0.4097,0.4076,0.415,0.4187,0.4245,0.4352,0.4395,0.4365,0.4539,0.4493,0.4503,0.4482,0.456,0.458,0.4598,0.4366,0.4365,0.4365,0,0,0.3953,0.3944,0.3961,0.4,0.4037,0.4066,0.4076,0.4118,0.4144,0.4222,0.4229,0.4293,0.4393,0.4452,0.4496,0.4618,0.461,0.4655,0.4707,0.4787,0.4804,0.4819,0.4825,0.484,0.4664,0.4664,0.4664,0,0.398,0.3986,0.399,0.4029,0.4065,0.4081,0.4134,0.4186,0.4245,0.4278,0.4257,0.4413,0.4445,0.459,0.4628,0.4651,0.4667,0.464,0.4804,0.4819,0.4832,0.4835,0.485,0.467,0.4669,0.4668,0.4668,0,0.4028,0.4049,0.4072,0.4114,0.4172,0.4219,0.428,0.4333,0.4353,0.4396,0.4516,0.4567,0.4652,0.4698,0.4698,0.4836,0.4805,0.4811,0.4755,0.4859,0.4855,0.4869,0.4678,0.4676,0.4674,0.4673,0,0,0.4038,0.4089,0.4095,0.4117,0.4209,0.4252,0.4363,0.4455,0.451,0.4587,0.4676,0.4796,0.4798,0.4845,0.4876,0.4936,0.5034,0.4911,0.4913,0.4904,0.517,0.4975,0.497,0.5083,0.5086,0.5089,0.5123,0,0.4069,0.4125,0.4162,0.4248,0.4283,0.4352,0.4455,0.455,0.4622,0.4715,0.4793,0.4892,0.4872,0.4918,0.4983,0.5032,0.5077,0.502,0.508,0.5079,0.4885,0.4982,0.4768,0.4766,0.5136,0.5138,0.514,0,0.4085,0.412,0.4186,0.4279,0.4304,0.4373,0.4506,0.4605,0.4757,0.4816,0.4929,0.4982,0.5101,0.5058,0.5185,0.5156,0.5158,0.5175,0.5178,0.4962,0.491,0.4727,0.4776,0.4698,0.516,0.5158,0.5157,0,0.4042,0.4131,0.4168,0.4203,0.4328,0.438,0.4465,0.4622,0.4718,0.488,0.4955,0.5097,0.516,0.5235,0.5252,0.5241,0.5355,0.5351,0.5172,0.5157,0.4962,0.4922,0.4924,0.5423,0.5423,0.5423,0.5423,0,0.4036,0.4064,0.4138,0.4159,0.4234,0.4346,0.4456,0.4564,0.4743,0.4844,0.499,0.508,0.5209,0.5284,0.53,0.5261,0.5401,0.5177,0.5166,0.4987,0.4951,0.4858,0.4833,0.5424,0.5424,0.5424,0.5423,0,0.3975,0.4019,0.4065,0.4171,0.4206,0.4263,0.4441,0.4531,0.4699,0.4842,0.4901,0.5092,0.516,0.5247,0.534,0.528,0.514,0.5239,0.4972,0.4926,0.4626,0.4612,0.4403,0.4281,0.5042,0.5037,0.5033,0,0.3938,0.3952,0.4042,0.4074,0.4114,0.4214,0.4299,0.449,0.4594,0.482,0.4881,0.5006,0.5039,0.5101,0.5045,0.5024,0.4962,0.479,0.4713,0.4569,0.4552,0.4425,0.4332,0.4506,0.4499,0.4492,0.4487,0,0.3887,0.3912,0.3952,0.4011,0.4075,0.4158,0.4281,0.4344,0.4552,0.4634,0.4731,0.4776,0.4822,0.469,0.4655,0.4629,0.4555,0.465,0.4618,0.4208,0.3958,0.3848,0.4491,0.4431,0.4436,0.444,0.4444,0.4446,0.3843,0.3849,0.3898,0.394,0.4009,0.4056,0.4045,0.4154,0.4224,0.4258,0.4452,0.4392,0.4414,0.4314,0.4267,0.4059,0.4097,0.394,0.3959,0.3861,0.3655,0.411,0.3962,0.3965,0.3967,0.3969,0.3971,0,0.3776,0.3788,0.3829,0.3846,0.384,0.3931,0.3991,0.3913,0.3835,0.3924,0.3922,0.3875,0.3749,0.3767,0.3621,0.3449,0.3333,0.3363,0.3207,0.3171,0.3692,0.3581,0.3199,0.3199,0.3199,0.3199,0.3199,0.32,0.3751,0.3727,0.3728,0.3661,0.3659,0.3551,0.352,0.3411,0.3401,0.3241,0.3172,0.325,0.3412,0.3382,0.3199,0.3108,0.2939,0.2719,0.279,0.3248,0.3306,0.3362,0.3255,0.2811,0.2811,0.2134,0.2129,0.2125]},{"header":{"parameterUnit":"m.s-1","parameterCategory":2,"la1":30.2991,"la2":30.254,"lo1":-89.0895,"lo2":-89.0444,"dy":0.0017,"dx":0.0017,"nx":28,"ny":28,"refTime":"2025-07-21T09:00:00:Z","depth":"0","parameterNumber":3,"parameterNumberName":"V-component_of_CURRENTS"},"data":[0,0,0,0,0,0,0,0,0,0,0,0,0,0,0,0,0,0,0,0,0,0,0,0,0,0,0,0,0,0,0,0,0,0,0,0,0,0,0,0,0,0,0,0,0,0,0,0,0,0,0,0,0,0,0,0,0,0,0.0342,0.0342,0,0.0322,0.0322,0.0321,0.0284,0.0283,0.0282,0.0282,0.0227,0.0227,0.0226,0,0,0,0,0,0,0,0,0,0,0,0,0,0.0313,0.0314,0.0342,0.0342,0.0341,0.0322,0.0322,0.0321,0.0284,0.0283,0.0282,0.0282,0.0228,0.0227,0.0226,0,0,0,0,0,0,0,0,0,0,0,0,0,0.0312,0.0314,0.0342,0.0321,0.0319,0.0322,0.0322,0.0321,0.0284,0.0283,0.0282,0.0281,0.0228,0.0227,0.0226,0.0239,0,0,0.0222,0.0221,0,0,0,0,0,0,0,0,0.0312,0.0313,0.0324,0.0322,0.032,0.0305,0.0291,0.0292,0.0284,0.0297,0.0282,0.0281,0.0251,0.0248,0.0246,0.0236,0.0234,0.0222,0.0221,0.0221,0.022,0,0,0,0,0,0,0,0.0312,0.0314,0.0333,0.0324,0.0321,0.03,0.0299,0.0291,0.0279,0.0296,0.0293,0.0292,0.0249,0.0248,0.0245,0.0233,0.0222,0.0221,0.022,0.022,0.0257,0.0259,0,0,0,0,0,0,0.0319,0.0314,0.0334,0.0333,0.0314,0.0302,0.0301,0.031,0.028,0.0275,0.0293,0.029,0.025,0.0246,0.0243,0.0284,0.0221,0.0219,0.0219,0.0255,0.0257,0.0259,0,0,0,0,0,0,0.0319,0.0321,0.0335,0.0322,0.0323,0.0304,0.0315,0.031,0.0305,0.0278,0.0272,0.0291,0.0249,0.0244,0.0244,0.028,0.0219,0.0218,0.0253,0.0256,0.0258,0.0349,0,0,0,0,0,0,0.0318,0.0322,0.033,0.0323,0.0324,0.0349,0.0315,0.0311,0.0307,0.0303,0.0275,0.0269,0.0248,0.0246,0.0242,0.0278,0.0217,0.0251,0.0254,0.0258,0.0344,0.0355,0.0364,0,0,0,0,0,0.0317,0.034,0.0331,0.0333,0.0337,0.035,0.0349,0.033,0.0308,0.0319,0.0297,0.027,0.0264,0.0246,0.0242,0.0277,0.025,0.0254,0.0257,0.034,0.0352,0.0363,0,0,0,0,0,0,0.033,0.0338,0.0328,0.0351,0.0353,0.0344,0.0352,0.0335,0.0327,0.0319,0.0285,0.0279,0.0294,0.0274,0.0254,0.0299,0.0255,0.0259,0.032,0.0331,0.0341,0.0356,0.0216,0,0,0,0,0,0.0338,0.0358,0.0357,0.0375,0.0379,0.0364,0.0364,0.0354,0.0346,0.034,0.0321,0.0307,0.0309,0.0308,0.0302,0.0323,0.0297,0.0346,0.0356,0.0364,0.0375,0.038,0.0392,0.0272,0.0272,0.0272,0,0,0.0346,0.0353,0.0363,0.0379,0.0377,0.0405,0.0362,0.0373,0.0397,0.0337,0.0359,0.0337,0.0321,0.0347,0.0353,0.0333,0.0381,0.0369,0.0377,0.0383,0.0386,0.0397,0.0407,0.0275,0.0274,0.0274,0,0,0.0385,0.0382,0.0416,0.0425,0.0432,0.0431,0.0437,0.0433,0.0433,0.045,0.0418,0.0418,0.0414,0.0418,0.0417,0.0478,0.043,0.0476,0.0542,0.0547,0.0557,0.0565,0.0529,0.0533,0.0485,0.0485,0.0485,0,0.0395,0.0439,0.0427,0.0462,0.0482,0.0449,0.0494,0.0495,0.0491,0.0508,0.047,0.0485,0.0455,0.0505,0.0517,0.0502,0.0479,0.0497,0.056,0.0567,0.0574,0.0535,0.0539,0.049,0.0489,0.0489,0.0489,0,0.0464,0.0495,0.0517,0.0557,0.0575,0.0606,0.061,0.0626,0.0614,0.0615,0.0649,0.0611,0.0626,0.0615,0.0577,0.0626,0.0584,0.0568,0.0529,0.0592,0.0546,0.0548,0.0497,0.0495,0.0494,0.0493,0,0,0.0502,0.0558,0.0565,0.0606,0.063,0.066,0.0704,0.0749,0.0798,0.0774,0.0838,0.0812,0.0784,0.0782,0.0743,0.073,0.0735,0.0669,0.0667,0.0631,0.0717,0.064,0.0634,0.073,0.0731,0.0732,0.0658,0,0.0564,0.0655,0.0664,0.0753,0.0804,0.0801,0.0856,0.0886,0.09,0.0951,0.0915,0.0954,0.0854,0.0869,0.0842,0.0775,0.0748,0.0755,0.0663,0.066,0.0583,0.0638,0.064,0.0571,0.066,0.066,0.066,0,0.0634,0.0691,0.0788,0.0875,0.0899,0.0942,0.1035,0.1084,0.1132,0.1146,0.1162,0.1131,0.112,0.1027,0.0935,0.0943,0.0836,0.0761,0.0757,0.0658,0.0589,0.0526,0.0571,0.0443,0.0663,0.0663,0.0662,0,0.0686,0.078,0.0865,0.0892,0.098,0.1028,0.1079,0.1142,0.1225,0.1279,0.1339,0.1301,0.1306,0.1186,0.1007,0.0983,0.0888,0.0843,0.0667,0.0658,0.0629,0.0616,0.0541,0.0776,0.0776,0.0776,0.0776,0,0.0758,0.0826,0.0897,0.0946,0.1068,0.11,0.1236,0.1279,0.1382,0.1507,0.1448,0.1524,0.1346,0.1265,0.1078,0.0879,0.0945,0.0686,0.0648,0.0657,0.0648,0.0508,0.0404,0.0773,0.0774,0.0775,0.0775,0,0.0807,0.0847,0.0956,0.1057,0.1097,0.1187,0.1345,0.1457,0.1525,0.1688,0.1719,0.1705,0.159,0.1379,0.118,0.0982,0.0694,0.07,0.0694,0.0656,0.0358,0.0258,0.0094,0.0033,0.0504,0.0502,0.05,0,0.0843,0.0902,0.1033,0.1113,0.1162,0.1299,0.1414,0.1522,0.1659,0.1806,0.1904,0.1837,0.1809,0.1466,0.1118,0.0785,0.063,0.0553,0.0502,0.035,0.0213,0.0148,0.0105,0.0489,0.0487,0.0486,0.0485,0,0.0918,0.0954,0.1047,0.1207,0.133,0.1492,0.1658,0.1788,0.1939,0.206,0.2182,0.2161,0.1834,0.1496,0.1025,0.0792,0.0449,0.051,0.0384,0.0218,0.0115,0.0036,0.0496,0.0472,0.0473,0.0474,0.0475,0.0475,0.097,0.1043,0.116,0.1316,0.1468,0.1666,0.1808,0.1985,0.2189,0.237,0.2357,0.234,0.1863,0.122,0.0899,0.0334,0.0322,0.0163,0.0059,0.0012,-0.0056,0.0344,0.0258,0.0258,0.0258,0.0258,0.0258,0,0.1037,0.1126,0.127,0.1456,0.1629,0.1699,0.1967,0.2109,0.2326,0.2458,0.2527,0.2282,0.1704,0.1145,0.0366,-0.0021,-0.0129,-0.0223,-0.028,-0.0298,0.0099,0.0093,-0.0069,-0.0069,-0.0069,-0.0069,-0.0069,-0.0068,0.1077,0.1209,0.1281,0.1553,0.1692,0.1922,0.2073,0.2267,0.2411,0.2532,0.252,0.249,0.205,0.0687,-0.0164,-0.0355,-0.0578,-0.0687,-0.0783,-0.0485,-0.0454,-0.0425,-0.045,-0.0724,-0.0725,-0.109,-0.1094,-0.1098]}],[{"header":{"parameterUnit":"m.s-1","parameterCategory":2,"la1":30.2991,"la2":30.254,"lo1":-89.0895,"lo2":-89.0444,"dy":0.0017,"dx":0.0017,"nx":28,"ny":28,"refTime":"2025-07-21T09:00:00:Z","depth":"2","parameterNumber":2,"parameterNumberName":"U-component_of_CURRENTS"},"data":[0,0,0,0,0,0,0,0,0,0,0,0,0,0,0,0,0,0,0,0,0,0,0,0,0,0,0,0,0,0,0,0,0,0,0,0,0,0,0,0,0,0,0,0,0,0,0,0,0,0,0,0,0,0,0,0,0,0,0.3257,0.3257,0,0.3276,0.3276,0.3276,0.3279,0.3279,0.3279,0.3279,0.3325,0.3326,0.3327,0,0,0,0,0,0,0,0,0,0,0,0,0,0.3229,0.3229,0.3257,0.3257,0.3258,0.3276,0.3276,0.3276,0.3279,0.3279,0.3279,0.3279,0.3325,0.3326,0.3328,0,0,0,0,0,0,0,0,0,0,0,0,0,0.3241,0.3229,0.3257,0.3263,0.3265,0.3276,0.3276,0.3276,0.3279,0.3279,0.3279,0.3279,0.3324,0.3326,0.3328,0.3336,0,0,0.3333,0.3334,0,0,0,0,0,0,0,0,0.3241,0.3242,0.3262,0.3263,0.3264,0.3278,0.3284,0.3299,0.3279,0.327,0.3279,0.3279,0.3314,0.3316,0.3315,0.3338,0.334,0.3333,0.3334,0.3335,0.3335,0,0,0,0,0,0,0,0.324,0.3241,0.3261,0.3263,0.3264,0.3269,0.327,0.3286,0.3289,0.3271,0.3272,0.3279,0.3314,0.3313,0.3316,0.3341,0.3333,0.3335,0.3336,0.3336,0.3474,0.3476,0,0,0,0,0,0,0.3243,0.324,0.3261,0.3262,0.3256,0.3269,0.3271,0.3271,0.3288,0.3292,0.3279,0.3279,0.331,0.3314,0.3318,0.3429,0.3335,0.3337,0.3338,0.3471,0.3474,0.3477,0,0,0,0,0,0,0.3242,0.3244,0.326,0.3255,0.3257,0.327,0.327,0.3271,0.3286,0.3295,0.3298,0.3294,0.3311,0.3316,0.3368,0.3427,0.3337,0.3339,0.3468,0.3472,0.3476,0.3587,0,0,0,0,0,0,0.3241,0.3244,0.3252,0.3255,0.3258,0.3299,0.327,0.3272,0.329,0.3291,0.3309,0.3312,0.3311,0.3366,0.337,0.3428,0.334,0.3465,0.347,0.3475,0.358,0.3595,0.3607,0,0,0,0,0,0.324,0.3253,0.3252,0.3255,0.3266,0.3301,0.3304,0.331,0.3291,0.3318,0.3331,0.3312,0.34,0.337,0.3374,0.3434,0.3462,0.3468,0.3474,0.3575,0.3592,0.3607,0,0,0,0,0,0,0.3249,0.3255,0.3254,0.3269,0.3298,0.3303,0.3323,0.332,0.3346,0.3348,0.3342,0.3348,0.3415,0.3409,0.3375,0.3488,0.343,0.3437,0.3505,0.3521,0.3534,0.3497,0.3342,0,0,0,0,0,0.3254,0.3264,0.328,0.3298,0.331,0.3316,0.333,0.334,0.3359,0.3369,0.3378,0.3399,0.3439,0.3467,0.3489,0.3551,0.3537,0.3593,0.3606,0.3618,0.3592,0.3661,0.3678,0.3497,0.3497,0.3496,0,0,0.3261,0.3268,0.3274,0.3301,0.3314,0.3341,0.3325,0.3361,0.3396,0.3372,0.342,0.344,0.3463,0.3537,0.3567,0.3543,0.3663,0.3625,0.3635,0.3602,0.3669,0.3687,0.3702,0.3501,0.35,0.3499,0,0,0.3282,0.329,0.3306,0.3335,0.3371,0.3375,0.339,0.3411,0.344,0.3493,0.3492,0.3546,0.3589,0.363,0.3654,0.3751,0.3724,0.3767,0.3816,0.3886,0.3901,0.3914,0.3919,0.3932,0.3784,0.3784,0.3784,0,0.3291,0.3305,0.3322,0.3353,0.3379,0.3391,0.3424,0.3459,0.3499,0.3535,0.3526,0.3615,0.3634,0.3736,0.3767,0.3782,0.3789,0.3757,0.3903,0.3915,0.3926,0.3929,0.3941,0.379,0.379,0.3789,0.3788,0,0.3324,0.3343,0.336,0.3392,0.3433,0.3465,0.3515,0.3563,0.3584,0.3611,0.3711,0.3749,0.3805,0.3835,0.3825,0.3931,0.3898,0.3906,0.3859,0.3951,0.3948,0.3959,0.3799,0.3797,0.3795,0.3793,0,0,0.3308,0.3365,0.3372,0.339,0.3454,0.3482,0.3569,0.3639,0.3692,0.3752,0.383,0.3908,0.3922,0.3948,0.3973,0.402,0.4109,0.3993,0.3994,0.399,0.4222,0.4091,0.4089,0.4153,0.4156,0.4158,0.4187,0,0.332,0.3367,0.3406,0.3454,0.3476,0.3541,0.3612,0.3692,0.3764,0.3845,0.3921,0.3998,0.3976,0.4025,0.4074,0.4103,0.4142,0.4096,0.4137,0.4136,0.4004,0.4099,0.3789,0.378,0.4197,0.4199,0.42,0,0.3325,0.3357,0.3405,0.3471,0.349,0.3532,0.3649,0.3731,0.3867,0.3934,0.4038,0.408,0.418,0.4145,0.4239,0.4214,0.4212,0.4216,0.4219,0.4053,0.4025,0.3756,0.3783,0.4218,0.4216,0.4215,0.4214,0,0.328,0.3347,0.3377,0.3404,0.3491,0.3546,0.3614,0.3753,0.384,0.4011,0.4072,0.4193,0.4261,0.4306,0.4312,0.4295,0.4376,0.4372,0.4244,0.4233,0.3947,0.3906,0.442,0.442,0.442,0.442,0.442,0,0.3259,0.328,0.3355,0.3374,0.3427,0.3526,0.3624,0.3727,0.3886,0.3974,0.4116,0.419,0.4303,0.4358,0.4353,0.4323,0.4429,0.4242,0.4243,0.3976,0.394,0.4296,0.4281,0.4421,0.4421,0.4421,0.4421,0,0.3199,0.3245,0.3277,0.337,0.3402,0.3457,0.3613,0.3686,0.3855,0.3986,0.4044,0.4213,0.4285,0.4349,0.4418,0.4361,0.4361,0.4317,0.3961,0.3918,0.4151,0.4142,0.4185,0.418,0.4177,0.4174,0.4172,0,0.317,0.3178,0.3257,0.3284,0.3325,0.3423,0.3484,0.366,0.3755,0.3969,0.4014,0.4145,0.4186,0.4242,0.4194,0.4172,0.4276,0.3851,0.376,0.4136,0.4134,0.413,0.4126,0.3427,0.3419,0.3412,0.3406,0,0.3117,0.314,0.3172,0.3217,0.3269,0.3328,0.3443,0.3493,0.3693,0.378,0.3878,0.3929,0.3998,0.3839,0.3831,0.3777,0.3836,0.3708,0.4232,0.3534,0.3424,0.3421,0.3442,0.3346,0.3352,0.3356,0.3359,0.3362,0.3071,0.3072,0.3105,0.3139,0.3191,0.321,0.3192,0.3307,0.3376,0.3459,0.3625,0.3586,0.3621,0.3439,0.332,0.3225,0.3482,0.3324,0.3344,0.3372,0.3278,0.3169,0.3021,0.3025,0.3029,0.3032,0.3035,0,0.3002,0.3007,0.303,0.3033,0.3007,0.3089,0.3129,0.3073,0.3049,0.3175,0.3218,0.2955,0.2851,0.2879,0.2635,0.2614,0.2591,0.2507,0.2455,0.2519,0.2574,0.2439,0.1959,0.1956,0.1952,0.1949,0,0,0.2963,0.2936,0.2935,0.284,0.284,0.2737,0.2707,0.2651,0.2681,0.2615,0.2576,0.2783,0.2831,0.2383,0.2309,0.209,0.2294,0.2009,0.288,0.2887,0.2938,0.3059,0.2923,0,0,0,0,0]},{"header":{"parameterUnit":"m.s-1","parameterCategory":2,"la1":30.2991,"la2":30.254,"lo1":-89.0895,"lo2":-89.0444,"dy":0.0017,"dx":0.0017,"nx":28,"ny":28,"refTime":"2025-07-21T09:00:00:Z","depth":"2","parameterNumber":3,"parameterNumberName":"V-component_of_CURRENTS"},"data":[0,0,0,0,0,0,0,0,0,0,0,0,0,0,0,0,0,0,0,0,0,0,0,0,0,0,0,0,0,0,0,0,0,0,0,0,0,0,0,0,0,0,0,0,0,0,0,0,0,0,0,0,0,0,0,0,0,0,0.0241,0.0241,0,0.0218,0.0218,0.0217,0.0188,0.0187,0.0187,0.0187,0.0141,0.0141,0.014,0,0,0,0,0,0,0,0,0,0,0,0,0,0.0217,0.0218,0.0241,0.0241,0.024,0.0218,0.0218,0.0217,0.0188,0.0187,0.0187,0.0186,0.0142,0.0141,0.014,0,0,0,0,0,0,0,0,0,0,0,0,0,0.0214,0.0218,0.0241,0.0223,0.0221,0.0218,0.0218,0.0217,0.0188,0.0187,0.0187,0.0186,0.0142,0.0141,0.014,0.0145,0,0,0.0136,0.0135,0,0,0,0,0,0,0,0,0.0214,0.0215,0.0226,0.0224,0.0222,0.0205,0.0193,0.0192,0.0188,0.02,0.0187,0.0186,0.0161,0.0159,0.0155,0.0143,0.0141,0.0136,0.0135,0.0135,0.0134,0,0,0,0,0,0,0,0.0214,0.0215,0.0231,0.0226,0.0224,0.0202,0.0201,0.0192,0.0184,0.0199,0.0197,0.0195,0.016,0.0157,0.0154,0.0141,0.0136,0.0135,0.0134,0.0134,0.0145,0.0146,0,0,0,0,0,0,0.0221,0.0216,0.0232,0.0231,0.0217,0.0203,0.0202,0.0211,0.0185,0.018,0.0196,0.0194,0.0159,0.0156,0.0152,0.0182,0.0135,0.0133,0.0133,0.0144,0.0145,0.0146,0,0,0,0,0,0,0.0221,0.0223,0.0233,0.0222,0.0222,0.0205,0.0215,0.0211,0.0208,0.0183,0.0177,0.0196,0.0158,0.0154,0.0152,0.0178,0.0133,0.0132,0.0143,0.0144,0.0146,0.0224,0,0,0,0,0,0,0.0221,0.0224,0.0232,0.0223,0.0223,0.0242,0.0215,0.0211,0.0208,0.0205,0.0181,0.0176,0.0158,0.0154,0.0151,0.0176,0.0131,0.0141,0.0143,0.0145,0.0221,0.0228,0.0235,0,0,0,0,0,0.022,0.0239,0.0233,0.0234,0.0235,0.0243,0.0241,0.0225,0.0209,0.0217,0.0199,0.0177,0.0164,0.0154,0.015,0.0175,0.014,0.0143,0.0145,0.0217,0.0227,0.0235,0,0,0,0,0,0,0.0229,0.0237,0.023,0.0249,0.025,0.0238,0.0244,0.023,0.0222,0.0218,0.0188,0.0183,0.0191,0.0172,0.0162,0.0184,0.0149,0.0151,0.0206,0.0215,0.0222,0.0233,0.013,0,0,0,0,0,0.0237,0.0255,0.0253,0.0268,0.0272,0.0257,0.0257,0.0248,0.024,0.0235,0.0218,0.0202,0.0199,0.0197,0.0187,0.0199,0.0167,0.0213,0.022,0.0227,0.0233,0.0211,0.0217,0.0154,0.0154,0.0154,0,0,0.0243,0.025,0.0259,0.0271,0.0269,0.0289,0.0256,0.0264,0.0282,0.0232,0.0249,0.0226,0.0206,0.0221,0.0224,0.0209,0.0226,0.0229,0.0235,0.0238,0.0214,0.022,0.0226,0.0155,0.0155,0.0155,0,0,0.0274,0.0274,0.0303,0.031,0.0316,0.0312,0.0317,0.0312,0.0312,0.0323,0.0294,0.0287,0.0279,0.0274,0.0269,0.0311,0.0263,0.0307,0.0358,0.0337,0.0342,0.0346,0.0304,0.0304,0.0314,0.0314,0.0315,0,0.0281,0.032,0.031,0.034,0.0356,0.0327,0.0364,0.0362,0.0356,0.0369,0.034,0.0332,0.0308,0.0334,0.0343,0.0329,0.0298,0.0327,0.0347,0.035,0.0352,0.0309,0.0307,0.0319,0.0318,0.0318,0.0317,0,0.0339,0.0366,0.0384,0.0417,0.043,0.0455,0.0456,0.0468,0.0457,0.0453,0.0468,0.0431,0.0431,0.0419,0.0391,0.0409,0.0373,0.0355,0.0325,0.0364,0.0315,0.0312,0.0324,0.0323,0.0322,0.0321,0,0,0.037,0.0417,0.0424,0.0459,0.0476,0.05,0.0533,0.0565,0.0604,0.0573,0.0614,0.0583,0.0554,0.0546,0.0509,0.048,0.0461,0.0428,0.0425,0.0388,0.0397,0.0358,0.0351,0.0445,0.0445,0.0445,0.0351,0,0.0421,0.05,0.0505,0.0578,0.0623,0.0617,0.0659,0.0678,0.0685,0.0714,0.0667,0.0687,0.0607,0.0615,0.0571,0.0497,0.0458,0.0487,0.0363,0.036,0.0322,0.0349,0.036,0.0278,0.0348,0.0348,0.0347,0,0.048,0.0531,0.0614,0.0685,0.0704,0.0737,0.0811,0.0849,0.0871,0.0879,0.087,0.0829,0.0792,0.0718,0.0595,0.0616,0.0513,0.0436,0.0431,0.0367,0.0317,0.0252,0.0269,0.0342,0.0342,0.0343,0.0343,0,0.0529,0.0607,0.0681,0.0704,0.0774,0.0815,0.0856,0.09,0.0966,0.0991,0.1023,0.0959,0.0945,0.081,0.0637,0.0623,0.0485,0.0451,0.0314,0.0308,0.0281,0.0274,0.036,0.036,0.0361,0.0361,0.0361,0,0.0591,0.065,0.0712,0.0756,0.086,0.0884,0.0999,0.1031,0.1101,0.1192,0.1115,0.1149,0.0966,0.086,0.0683,0.0489,0.0521,0.0325,0.0289,0.0307,0.0304,0.0331,0.0329,0.0357,0.0358,0.0359,0.0359,0,0.0637,0.0671,0.0766,0.0852,0.0886,0.0967,0.11,0.1193,0.1232,0.1346,0.1362,0.1301,0.1162,0.0951,0.0738,0.0567,0.0378,0.0298,0.0318,0.0287,0.0199,0.0202,0.0144,0.0142,0.014,0.0139,0.0137,0,0.0669,0.0721,0.0837,0.0908,0.0951,0.1074,0.1173,0.1258,0.137,0.144,0.1504,0.1401,0.1344,0.0998,0.0695,0.039,0.0352,0.0192,0.0167,0.0209,0.018,0.0186,0.0191,0.0151,0.015,0.0149,0.0149,0,0.0734,0.0767,0.0849,0.0994,0.1103,0.1245,0.1388,0.149,0.1603,0.1672,0.1727,0.1676,0.1362,0.1051,0.0635,0.0424,0.0242,0.0165,0.0219,0.0209,0.021,0.0183,0.0189,0.0142,0.0142,0.0143,0.0143,0.0144,0.078,0.0846,0.095,0.1092,0.1228,0.1397,0.1513,0.1661,0.1813,0.1927,0.188,0.18,0.146,0.0919,0.0557,0.018,0.0204,0.006,0.0065,0.007,0.0093,0.0091,0.0004,0.0003,0.0003,0.0003,0.0003,0,0.0843,0.0919,0.1047,0.1213,0.1365,0.143,0.1649,0.1759,0.1921,0.2011,0.2039,0.1693,0.1341,0.0944,0.0387,0.0059,0.0042,-0.0057,-0.0004,0.0005,0.0012,0.0034,-0.0073,-0.0074,-0.0075,-0.0076,0,0,0.0876,0.0995,0.1059,0.1296,0.142,0.1618,0.1737,0.1883,0.1987,0.2052,0.2013,0.1943,0.1453,0.1036,0.0581,0.0255,0.0208,0.0186,0.0281,0.0406,0.0418,0.0109,0.0155,0,0,0,0,0]}],[{"header":{"parameterUnit":"m.s-1","parameterCategory":2,"la1":30.2991,"la2":30.254,"lo1":-89.0895,"lo2":-89.0444,"dy":0.0017,"dx":0.0017,"nx":28,"ny":28,"refTime":"2025-07-21T09:00:00:Z","depth":"4","parameterNumber":2,"parameterNumberName":"U-component_of_CURRENTS"},"data":[0,0,0,0,0,0,0,0,0,0,0,0,0,0,0,0,0,0,0,0,0,0,0,0,0,0,0,0,0,0,0,0,0,0,0,0,0,0,0,0,0,0,0,0,0,0,0,0,0,0,0,0,0,0,0,0,0,0,0.205,0.205,0,0.2069,0.2069,0.2069,0.2109,0.211,0.2111,0.2112,0.2136,0.2136,0.2135,0,0,0,0,0,0,0,0,0,0,0,0,0,0.1991,0.1992,0.205,0.205,0.2051,0.2069,0.2069,0.2069,0.2108,0.211,0.2111,0.2113,0.2136,0.2136,0.2135,0,0,0,0,0,0,0,0,0,0,0,0,0,0.201,0.1992,0.2049,0.2076,0.2079,0.2069,0.2069,0.2069,0.2108,0.211,0.2112,0.2113,0.2137,0.2136,0.2135,0.2096,0,0,0.2133,0.2133,0,0,0,0,0,0,0,0,0.2009,0.2012,0.2071,0.2074,0.2077,0.2092,0.2058,0.208,0.2108,0.2092,0.2112,0.2114,0.2123,0.2124,0.2117,0.2097,0.2098,0.2133,0.2133,0.2132,0.2132,0,0,0,0,0,0,0,0.2008,0.2011,0.2053,0.2072,0.2076,0.2068,0.2073,0.2061,0.2094,0.2094,0.2098,0.2106,0.2125,0.2118,0.2118,0.2098,0.2133,0.2133,0.2132,0.2132,0.2208,0.2211,0,0,0,0,0,0,0.2015,0.201,0.2053,0.2054,0.2052,0.2068,0.2073,0.2082,0.2095,0.21,0.2105,0.2108,0.2118,0.2119,0.2119,0.2209,0.2132,0.2132,0.2131,0.2206,0.2209,0.2211,0,0,0,0,0,0,0.2014,0.2019,0.2052,0.2036,0.204,0.2068,0.2077,0.2082,0.2123,0.2104,0.2108,0.2148,0.212,0.212,0.215,0.2205,0.2131,0.2131,0.2203,0.2207,0.221,0.2301,0,0,0,0,0,0,0.2012,0.2018,0.2045,0.2036,0.2042,0.208,0.2076,0.2081,0.2124,0.213,0.2141,0.2142,0.2121,0.2152,0.215,0.2203,0.213,0.22,0.2205,0.2209,0.2295,0.2307,0.2317,0,0,0,0,0,0.201,0.2031,0.2046,0.2052,0.2072,0.2082,0.2085,0.2106,0.2125,0.2149,0.2158,0.2144,0.218,0.2152,0.2149,0.2204,0.2198,0.2203,0.2209,0.2289,0.2304,0.2317,0,0,0,0,0,0,0.2016,0.2037,0.2053,0.2081,0.21,0.2092,0.2122,0.2132,0.2156,0.2176,0.2157,0.2159,0.2211,0.2193,0.2163,0.2243,0.2194,0.2199,0.2256,0.227,0.2282,0.2277,0.213,0,0,0,0,0,0.203,0.2061,0.2072,0.21,0.2117,0.2129,0.2145,0.2159,0.217,0.2185,0.2193,0.2208,0.2222,0.2236,0.2241,0.227,0.2267,0.2311,0.2323,0.2332,0.233,0.2393,0.241,0.2229,0.2229,0.2229,0,0,0.2038,0.2059,0.2075,0.2106,0.2126,0.2143,0.2144,0.2183,0.2205,0.2181,0.2232,0.2247,0.2239,0.2281,0.2304,0.2279,0.2381,0.2339,0.2348,0.2339,0.24,0.2418,0.2433,0.2233,0.2232,0.2232,0,0,0.2052,0.2094,0.2119,0.2138,0.2181,0.2188,0.2212,0.2235,0.2264,0.23,0.2301,0.2347,0.2363,0.2372,0.2374,0.2451,0.2441,0.2473,0.2524,0.2587,0.2602,0.2616,0.2626,0.2639,0.2479,0.2479,0.2479,0,0.2064,0.2094,0.2128,0.215,0.2171,0.2215,0.2233,0.2261,0.2294,0.2323,0.2337,0.2402,0.2402,0.2448,0.2481,0.2477,0.2497,0.247,0.2602,0.2615,0.2627,0.2634,0.2648,0.2484,0.2483,0.2483,0.2482,0,0.2077,0.2116,0.2137,0.2182,0.2206,0.224,0.2274,0.2325,0.2374,0.24,0.2484,0.2497,0.254,0.256,0.2539,0.2632,0.2614,0.261,0.2564,0.2651,0.2652,0.2665,0.2491,0.2489,0.2488,0.2486,0,0,0.2056,0.2132,0.2143,0.2167,0.223,0.2242,0.2305,0.2362,0.2419,0.2484,0.2555,0.2602,0.2646,0.2651,0.2661,0.2711,0.2809,0.2706,0.2707,0.2709,0.2929,0.2736,0.273,0.2846,0.2849,0.2852,0.2893,0,0.2061,0.2105,0.2144,0.2189,0.2209,0.2271,0.2314,0.2377,0.2457,0.2543,0.2604,0.2681,0.2671,0.2723,0.2774,0.2807,0.2849,0.2796,0.285,0.285,0.2663,0.2741,0.2861,0.2902,0.2905,0.2907,0.2908,0,0.2048,0.2084,0.2129,0.219,0.2207,0.225,0.2348,0.2397,0.2523,0.2593,0.27,0.2756,0.2849,0.2838,0.2937,0.2914,0.293,0.2943,0.2945,0.2738,0.268,0.28,0.293,0.2928,0.2927,0.2925,0.2924,0,0.1993,0.2065,0.2108,0.2128,0.2207,0.2257,0.2317,0.2428,0.2496,0.266,0.2743,0.285,0.2935,0.2987,0.3023,0.3007,0.3114,0.3091,0.292,0.2906,0.3026,0.3011,0.3159,0.3159,0.3159,0.3159,0.3159,0,0.1954,0.1989,0.2101,0.2119,0.2177,0.2243,0.2338,0.242,0.2564,0.2647,0.2786,0.2864,0.299,0.3059,0.3064,0.3023,0.3155,0.2929,0.2912,0.306,0.305,0.3033,0.3018,0.3161,0.316,0.316,0.316,0,0.1875,0.1952,0.2003,0.2113,0.2154,0.2201,0.2347,0.2407,0.2568,0.2691,0.2755,0.2922,0.3004,0.3075,0.3157,0.3059,0.3047,0.2998,0.3136,0.3126,0.2779,0.2768,0.2798,0.2792,0.2787,0.2782,0.2779,0,0.1831,0.1858,0.199,0.2024,0.2089,0.2183,0.2235,0.2397,0.2467,0.269,0.2724,0.2886,0.2966,0.2917,0.3007,0.2991,0.2957,0.2913,0.2846,0.2766,0.2748,0.2745,0.2742,0.277,0.2769,0.2767,0.2766,0,0.1749,0.1827,0.1873,0.1948,0.2022,0.2075,0.2178,0.2221,0.2396,0.2571,0.2635,0.268,0.276,0.2797,0.281,0.2795,0.292,0.2857,0.2866,0.2803,0.2732,0.2718,0.2722,0.2748,0.275,0.2752,0.2753,0,0.1699,0.1713,0.1794,0.1839,0.1917,0.1931,0.2007,0.2074,0.2163,0.2407,0.2422,0.2584,0.2738,0.2696,0.2709,0.268,0.2629,0.252,0.2546,0.2568,0.2471,0.2346,0.2231,0,0,0,0,0,0.1633,0.1629,0.1666,0.1699,0.1768,0.1815,0.1935,0.2017,0.2203,0.2186,0.2299,0.2359,0.2395,0.2478,0.2399,0.2594,0.2633,0.2487,0.2519,0.2645,0.2667,0.2573,0,0,0,0,0,0,0.1586,0.1623,0.1621,0.1571,0.157,0.1624,0.1699,0.1827,0.1825,0.2028,0.2062,0.2206,0.2278,0.2419,0.2354,0.2374,0.2339,0.2588,0.2581,0.2633,0.2652,0.267,0.2581,0,0,0,0,0]},{"header":{"parameterUnit":"m.s-1","parameterCategory":2,"la1":30.2991,"la2":30.254,"lo1":-89.0895,"lo2":-89.0444,"dy":0.0017,"dx":0.0017,"nx":28,"ny":28,"refTime":"2025-07-21T09:00:00:Z","depth":"4","parameterNumber":3,"parameterNumberName":"V-component_of_CURRENTS"},"data":[0,0,0,0,0,0,0,0,0,0,0,0,0,0,0,0,0,0,0,0,0,0,0,0,0,0,0,0,0,0,0,0,0,0,0,0,0,0,0,0,0,0,0,0,0,0,0,0,0,0,0,0,0,0,0,0,0,0,0.0162,0.0162,0,0.015,0.015,0.015,0.0139,0.0139,0.0139,0.0139,0.012,0.0119,0.0119,0,0,0,0,0,0,0,0,0,0,0,0,0,0.0145,0.0145,0.0162,0.0162,0.0161,0.015,0.015,0.015,0.0139,0.0139,0.0139,0.0139,0.012,0.0119,0.0119,0,0,0,0,0,0,0,0,0,0,0,0,0,0.0145,0.0146,0.0162,0.0155,0.0154,0.015,0.015,0.015,0.0139,0.0139,0.0139,0.0139,0.012,0.0119,0.0119,0.012,0,0,0.0117,0.0117,0,0,0,0,0,0,0,0,0.0145,0.0146,0.0156,0.0155,0.0154,0.0146,0.0137,0.014,0.0139,0.0145,0.0139,0.0138,0.0128,0.0126,0.0125,0.0119,0.0118,0.0117,0.0117,0.0117,0.0116,0,0,0,0,0,0,0,0.0145,0.0146,0.0157,0.0156,0.0155,0.0142,0.0142,0.0138,0.0138,0.0144,0.0144,0.0142,0.0127,0.0126,0.0125,0.0118,0.0117,0.0117,0.0116,0.0116,0.0116,0.0116,0,0,0,0,0,0,0.0148,0.0146,0.0158,0.0157,0.0149,0.0142,0.0142,0.0149,0.0138,0.0136,0.0142,0.0142,0.0127,0.0125,0.0124,0.0142,0.0117,0.0116,0.0116,0.0115,0.0116,0.0116,0,0,0,0,0,0,0.0148,0.015,0.0158,0.0151,0.0151,0.0143,0.015,0.0149,0.0151,0.0136,0.0134,0.0147,0.0127,0.0125,0.0126,0.0141,0.0116,0.0115,0.0115,0.0116,0.0116,0.0168,0,0,0,0,0,0,0.0148,0.015,0.0157,0.0151,0.0151,0.0165,0.015,0.0149,0.015,0.0149,0.0139,0.0137,0.0126,0.0127,0.0126,0.014,0.0115,0.0115,0.0115,0.0116,0.0166,0.017,0.0174,0,0,0,0,0,0.0147,0.016,0.0157,0.0159,0.0161,0.0165,0.0165,0.0158,0.0151,0.0158,0.0149,0.0138,0.013,0.0127,0.0125,0.0139,0.0114,0.0115,0.0116,0.0164,0.0169,0.0173,0,0,0,0,0,0,0.0154,0.016,0.0157,0.017,0.0171,0.0164,0.017,0.0163,0.0161,0.0161,0.0144,0.0142,0.0148,0.0135,0.0132,0.0139,0.0119,0.012,0.0156,0.0161,0.0165,0.0174,0.0114,0,0,0,0,0,0.0159,0.0172,0.0171,0.0182,0.0185,0.0178,0.0179,0.0175,0.0171,0.017,0.0163,0.0153,0.0149,0.0148,0.0141,0.0148,0.0117,0.0153,0.0158,0.0161,0.0167,0.0128,0.013,0.0119,0.0119,0.0119,0,0,0.0164,0.0169,0.0176,0.0184,0.0185,0.02,0.0178,0.0186,0.0199,0.0169,0.0185,0.0168,0.0153,0.016,0.0162,0.0152,0.0147,0.0162,0.0165,0.0169,0.0129,0.013,0.0131,0.0119,0.0119,0.0119,0,0,0.0184,0.0187,0.0207,0.0212,0.0218,0.0216,0.0221,0.022,0.0222,0.0231,0.0212,0.0202,0.02,0.0189,0.0183,0.0204,0.0169,0.0203,0.0234,0.0197,0.0198,0.0198,0.0156,0.0152,0.0206,0.0206,0.0206,0,0.019,0.0217,0.0211,0.0232,0.0244,0.0228,0.0254,0.0253,0.0252,0.0258,0.0244,0.0229,0.0213,0.0217,0.0224,0.0214,0.0185,0.022,0.0203,0.0202,0.0201,0.0158,0.0153,0.0209,0.0209,0.0208,0.0208,0,0.0226,0.0249,0.0261,0.0287,0.0295,0.0315,0.0315,0.0325,0.0321,0.0317,0.0317,0.0287,0.0279,0.0269,0.0256,0.0248,0.0227,0.0211,0.0192,0.0206,0.0159,0.0153,0.0213,0.0212,0.0211,0.021,0,0,0.0245,0.0282,0.0288,0.0315,0.033,0.0346,0.0367,0.0387,0.041,0.0386,0.0403,0.0377,0.0353,0.0344,0.0316,0.0281,0.0247,0.0251,0.0248,0.0212,0.0161,0.0154,0.0146,0.0229,0.0229,0.0228,0.0128,0,0.028,0.0337,0.0342,0.0395,0.0428,0.0425,0.0453,0.0463,0.0464,0.0473,0.0427,0.0432,0.0385,0.0385,0.034,0.0276,0.0234,0.0275,0.015,0.0147,0.0141,0.014,0.0226,0.0124,0.0122,0.0121,0.012,0,0.0318,0.0356,0.0417,0.047,0.0484,0.0511,0.0556,0.0581,0.0581,0.058,0.0557,0.0519,0.0472,0.0428,0.0308,0.0338,0.0257,0.0193,0.0188,0.0161,0.0129,0.0107,0.0108,0.0109,0.011,0.0111,0.0112,0,0.0347,0.0408,0.0464,0.0482,0.0534,0.0565,0.0597,0.0617,0.0657,0.0651,0.0664,0.059,0.0565,0.045,0.0316,0.0315,0.0172,0.0152,0.0062,0.006,0.0073,0.0074,0.0061,0.0061,0.0062,0.0062,0.0062,0,0.0386,0.0432,0.0488,0.0522,0.0601,0.0617,0.0698,0.0713,0.0748,0.0794,0.0726,0.0725,0.0571,0.0469,0.0335,0.0181,0.0183,0.0067,0.0036,0.0096,0.0101,0.0068,0.007,0.0058,0.0059,0.006,0.006,0,0.041,0.0444,0.0517,0.0588,0.0618,0.0679,0.0778,0.0836,0.0854,0.0905,0.0907,0.0831,0.0702,0.053,0.034,0.022,0.0064,0.0007,0.0082,0.0058,-0.0031,-0.0025,-0.0102,-0.0103,-0.0103,-0.0104,-0.0105,0,0.0426,0.0467,0.0567,0.0622,0.0661,0.0758,0.0831,0.0889,0.0949,0.0965,0.0985,0.0886,0.0807,0.0537,0.0348,0.0085,0.0046,-0.0046,-0.0041,-0.0025,-0.0047,-0.004,-0.0033,-0.0106,-0.0106,-0.0107,-0.0107,0,0.0459,0.0495,0.0558,0.0673,0.0761,0.0867,0.0966,0.1017,0.1075,0.1086,0.1057,0.0917,0.0769,0.0549,0.0347,0.0155,0.0007,-0.0056,-0.0055,-0.0051,-0.0031,-0.0051,-0.0043,-0.011,-0.0109,-0.0109,-0.0109,0,0.0484,0.053,0.0615,0.0719,0.0833,0.0939,0.0994,0.1061,0.1121,0.1129,0.1113,0.0951,0.0859,0.0585,0.0396,0.021,0.0158,0.0084,0.0076,0.0077,0.0156,0.0208,0.0179,0,0,0,0,0,0.0507,0.0561,0.0654,0.0769,0.0884,0.0953,0.1068,0.1113,0.1161,0.1153,0.1139,0.1,0.073,0.0616,0.0432,0.0362,0.0114,0.0136,0.0021,-0.0127,-0.0123,-0.0062,0,0,0,0,0,0,0.0519,0.0604,0.0651,0.0795,0.0879,0.1011,0.1089,0.1122,0.1121,0.113,0.1,0.0934,0.0681,0.0835,0.0421,0.0365,0.0262,0.0015,0.001,-0.0129,-0.0125,-0.0123,-0.0059,0,0,0,0,0]}]]